COSMOS 1275 DEB, 12741

Orbit data source: Space-Track

COSMOS 1275 DEB, 12741 is space debris in LEO originally from a launch on Thu, 04 Jun 1981 UTC launched from the Plesetsk Missile And Space Complex (PKMTR). Debris objects in space refer to the collection of defunct objects orbiting the Earth. Examples of debris include non-operational satellites, rocket bodies, and fragments generated from explosions, collisions, or faulty payload assembly.

Loading next visibility...
Identifier
12741, 1981-053CJ
Orbit
LEO
Country
Flag of CISCIS
Related business
Manufacturer
Unknown
Mission
Spacecraft
Bus & Motor
Unknown
Mass
Unknown
Launch date (UTC)
1981-06-04 (45 years ago)
Launch vehicle
Unknown
Launch site
Plesetsk Missile And Space Complex (PKMTR)
Object type
Payload
Rocket body
Debris
Shape & HBR
Unknown shape, 0.1 m
Radar Cross Section
Medium (>0.1 m² and <1 m²)

Expand to show TLE details & history
Last TLE update: 14 hours ago

TLE from 14 hours ago
0 COSMOS 1275 DEB
1 12741U 81053CJ  26254.71950436  .00000428  00000-0  32548-3 0  9995
2 12741  82.9442  65.1533 0065840 181.5111 193.2256 13.90570886272882
Epoch: 2026-09-11T17:16Z
TLE epoch observation values (Epoch: 2026-09-11T17:16:05.176Z)
Latitude
14.4241°
Longitude
177.20776°
Altitude
975.677 km
Speed
7.341 km/s
True Right ascension
04h 27m 52s
True Declination
14° 20' 38"
Sunlit
Object was in daylight at epoch
Visualization orbit readout
Latitude
Unknown
Longitude
Unknown
Altitude
Unknown
Speed
Unknown
Apparent Right ascension
Unknown
Apparent Declination
Unknown
Sunlit
N/A
Visualization observer readout
Local Sidereal Time
23:48:26
Azimuth
Unknown
Elevation
Unknown
Doppler factor
Unknown
Orbital elements
Apogee altitude
971.834 km
Perigee altitude
875.682 km
Semi-major axis
7,301.895 km
Eccentricity
0.00658
Inclination
82.9442°
RAAN
65.1533°
Arg. of periapsis
181.5111°
True anomaly
193.05436°
Mean anomaly
193.2256°
Eccentric anomaly
193.13984°
Mean motion
3.47848 °/min
Orbital period
103.49 mins
BSTAR
0.00032548
Loading maneuver chart data...
Computing Atmospheric mass density...
Loading historical data...
Loading historical data...
Loading historical data...
Loading historical data...
Loading historical data...
Loading historical data...
Loading historical data...

Documentation

Showing up to 5 results
|